www.pogodaiklimat.ru

Погода и климат >> Архив погоды >> Россия >> Свердловская область >> Екатеринбург


АРХИВ ПОГОДЫ в Екатеринбурге

Время (UTC), дата Ветер
(напр.,м/с)
 
Видим.   Явления Облачность Т
(С)
Тd
(С)
f
(%)
Тe
(С)
Тes
(С)
Комфортность P
(гПа)
Po
(гПа)
Тmin
(С)
Tmax
(С)
R
(мм)
R24
(мм)
S
(см)
00 14.07 ЮВ 4 20 км 8/0
[Ac und Ci fib]
+21.3 +10.3 49 +23 +23 комфорт 1007.8 975.8
03 14.07 ЮВ 4 50 км 8/0
[Cs]
+22.9 +11.1 47 +25 +28 комфорт 1007.1 975.2 +20.6
06 14.07 Ю 5-10
{12}
50 км 3/3 1000 м
[Cu hum Cs]
+29.1 +10.3 31 +29 +34 жарко 1005.9 974.7
09 14.07 ЮВ 6-12
{14}
50 км 8/0
[Cc]
+31.9 +8.3 23 +31 +35 жарко 1005.5 974.6
12 14.07 Ю 4
{14}
50 км 8/0
[Cs]
+31.7 +9.3 25 +31 +35 жарко 1005.9 975.0
15 14.07 ЮВ 3
{10}
20 км 8/0
[Ac trans Cs]
+29.3 +8.9 28 +29 +29 жарко 1006.5 975.3 +32.5
18 14.07 В 2 10 км 9/0
[Cs]
+25.5 +10.1 38 +26 +26 жарко 1007.3 975.7
21 14.07 штиль 0 10 км 6/0
[Ac As]
+22.5 +15.1 63 +26 +26 жарко 1007.2 975.4
00 15.07 В 2 20 км 9/8 600 м
[Cb calv Cs]
+21.4 +14.0 63 +24 +24 комфорт 1005.9 973.9
03 15.07 ЮВ 3 50 км 9/3 600 м
[Cb calv Cs]
+23.1 +13.6 55 +26 +28 жарко 1004.9 973.2 +21.0 0.0
06 15.07 В 4 20 км {ливн. осадки} 9/4 600 м
[Cb calv Cs]
+27.6 +12.9 40 +29 +33 жарко 1003.2 972.0
09 15.07 В 4
{10}
20 км 9/9 600 м
[Cb calv]
+27.5 +15.1 47 +30 +31 жарко 1001.0 969.9
12 15.07 В 5-12
{15}
20 км 8/4 600 м
[Cb calv Cc]
+30.9 +11.4 30 +31 +33 жарко 997.8 967.1
15 15.07 В 5-10
{15}
10 км 9/3 600 м
[Sc Cc]
+28.3 +11.7 36 +29 +29 жарко 995.4 964.4 +31.3 0.0
18 15.07 ЮВ 4
{14}
10 км 4/3 600 м
[Sc Cs]
+27.1 +10.5 35 +28 +28 жарко 994.7 963.7
21 15.07 ЮЗ 4 10 км 3/3 600 м
[Cb calv Cs]
+20.1 +11.5 58 +22 +22 комфорт 996.7 964.9
00 16.07 ЮЗ 3 50 км 8/8 600 м
[Cb calv]
+16.7 +10.5 67 +16 +16 тепло 998.2 966.0
03 16.07 ЮЗ 3
{11}
50 км 9/9 600 м
[Cb calv]
+17.0 +10.4 65 +17 +17 по сезону 998.9 966.7 +16.6
06 16.07 ЮЗ 4
{10}
50 км 10/10 600 м
[Cb calv]
+17.1 +11.2 68 +17 +17 прохладно 1000.1 967.8
09 16.07 З 5-10
{10}
10 км слаб. ливневой дождь 10/10 600 м
[Cb calv]
+16.6 +13.8 84 +16 +16 холодно 1002.7 970.3
12 16.07 З 5-10
{14}
50 км {ливн. осадки} 10/10 600 м
[Cb calv]
+16.9 +12.9 77 +16 +16 очень
холодно
1005.9 973.4
15 16.07 З 5-11
{15}
50 км {ливн. осадки} 6/6 600 м
[Sc diur, vesp]
+17.2 +12.1 72 +17 +17 прохладно 1008.6 976.1 +17.4 0.5
18 16.07 З 3
{11}
10 км {ливн. осадки} 3/0
[Ci fib]
+16.3 +11.8 75 +16 +16 прохладно 1010.2 977.5
21 16.07 З 4 10 км ясно +16.3 +11.9 75 +16 +16 по сезону 1011.1 978.4
00 17.07 З 3 50 км ясно +14.7 +11.4 81 +14 +14 по сезону 1012.7 979.8
03 17.07 З 3 50 км 10/0
[Cs]
+17.0 +11.8 71 +17 +20 по сезону 1013.6 980.9 +14.7
06 17.07 СЗ 4 50 км 4/0
[Cs]
+21.2 +9.2 46 +22 +30 комфорт 1013.2 980.9
09 17.07 З 5
{11}
50 км 3/3 1000 м
[Cu hum]
+24.4 +7.5 34 +25 +30 комфорт 1012.4 980.5
12 17.07 З 3
{11}
50 км 3/3 1000 м
[Cu hum]
+25.5 +6.4 29 +25 +29 комфорт 1012.1 980.3
15 17.07 З 4 50 км 3/0
[Cs]
+22.8 +6.5 35 +23 +24 комфорт 1012.3 980.2 +25.9
18 17.07 З 1 10 км 3/0
[Cs]
+19.1 +8.3 50 +21 +21 комфорт 1013.4 980.9
21 17.07 штиль 0 10 км 1/0
[Ci fib]
+15.7 +8.7 63 +16 +16 по сезону 1013.2 980.3
00 18.07 Ю 1 20 км 8/3 600 м
[Cu hum As trans]
+13.7 +9.5 76 +14 +14 по сезону 1013.5 980.4
03 18.07 З 1 50 км 8/3 600 м
[Cu med, cong Ac trans Cs]
+18.1 +9.9 59 +19 +22 тепло 1013.3 980.7 +13.6
06 18.07 З 3 50 км 3/3 600 м
[Cu med, cong Cs]
+23.5 +8.0 37 +24 +31 комфорт 1011.7 979.7
09 18.07 ЮЗ 3 50 км 1/1 600 м
[Cu med, cong]
+27.0 +8.2 30 +27 +37 жарко 1010.3 978.7
12 18.07 З 2 50 км 3/3 600 м
[Cu med, cong Ci fib]
+28.3 +9.0 30 +28 +33 жарко 1009.3 977.9
15 18.07 ЮЗ 1 50 км 3/1 600 м
[Cu med, cong Ci fib]
+26.7 +8.3 31 +27 +27 жарко 1009.1 977.6 +28.9
18 18.07 штиль 0 10 км 1/0
[Ci fib]
+22.0 +10.3 47 +24 +24 комфорт 1010.0 977.9
21 18.07 штиль 0 10 км 3/0
[Ci fib]
+19.2 +12.0 63 +20 +20 тепло 1009.9 977.5
00 19.07 В 3 10 км гроза, ливневой дождь 9/9 600 м
[Cb cap]
+17.9 +13.1 73 +18 +18 тепло 1008.9 976.5
03 19.07 ЮВ 1 20 км {гроза, ливн. осадки} 4/4 600 м
[Cb calv]
+21.4 +14.4 64 +24 +27 комфорт 1009.0 977.0 +17.7 0.3
06 19.07 ЮВ 3 50 км {гроза, ливн. осадки} 3/1 1000 м
[Cu hum Ci fib]
+25.8 +13.1 45 +28 +36 жарко 1008.2 976.6
09 19.07 ЮВ 3 50 км 4/3 1000 м
[Cu hum Ci fib]
+30.3 +12.2 33 +31 +39 жарко 1006.8 975.7
12 19.07 ЮВ 3 50 км 4/4 600 м
[Cu hum]
+31.5 +11.9 30 +32 +35 жарко 1006.5 975.5
15 19.07 ЮВ 2 50 км 8/3 600 м
[Cu hum Ci fib]
+29.5 +12.1 34 +30 +31 жарко 1006.6 975.4 +31.9
18 19.07 ЮЗ 1 10 км 9/4 600 м
[Cb calv Cc]
+26.0 +14.2 48 +28 +28 жарко 1007.8 976.2
21 19.07 Ю 1 10 км {ливн. осадки} 10/0
[Cc]
+22.4 +14.7 62 +26 +26 жарко 1008.1 976.2
00 20.07 Ю 1 20 км {ливн. осадки} 10/0
[Cs]
+20.2 +15.0 72 +24 +24 комфорт 1009.0 976.8
03 20.07 ЮЗ 2 20 км 10/3 600 м
[Sc Ac und Ci fib]
+22.8 +15.4 63 +27 +28 душно 1009.4 977.5 +20.2 0.0
06 20.07 ЮЗ 3 20 км {ливн. осадки} 8/4 600 м
[Cb calv Cs]
+27.1 +17.3 55 +31 +36 душно 1009.3 977.9
09 20.07 ЮЗ 2 50 км 8/4 600 м
[Cb calv Ci fib]
+29.3 +16.2 45 +32 +40 душно 1008.9 977.7
12 20.07 Ю 3 50 км {гроза} 8/3 600 м
[Cu med, cong Cs]
+29.2 +14.6 41 +31 +35 жарко 1008.7 977.5
15 20.07 СЗ 2 50 км гроза без осадков {ливн. осадки} 8/4 600 м
[Cb calv Cs]
+27.8 +14.6 44 +30 +30 жарко 1008.9 977.5 +30.2 0.0
18 20.07 СВ 1 10 км {гроза, ливн. осадки} 9/9 600 м
[Sc]
+23.8 +16.9 65 +27 +27 жарко 1008.8 977.1
21 20.07 СЗ 2 10 км 8/8 600 м
[Sc]
+23.0 +15.3 62 +27 +27 душно 1008.7 976.8

 

Местоположение метеостанции Екатеринбург (Свердловская область, Россия): широта 56.83 долгота 60.63 высота над уровнем моря 281 м.

В архиве по умолчанию представлена погода в Екатеринбурге за последнюю неделю. Архивные данные за месяц целиком и за предыдущие месяцы, начиная с января 2011 года, Вы можете получить, выбрав интересующий диапазон дат из раскрывающегося списка и нажав кнопку "Ввод!".


*Определитесь, кто Вы:
робот инопланетянин человек

Внимание! Время в таблицах - всемирное. Для получения местного времени необходимо прибавить поправку, которая равна 5 ч.

Смотрите также архив погоды в соседних городах и на ближайших метеорологических станциях:

Погода в Екатеринбурге (Бот.сад) (Свердловская область, Россия) (5 км)
Погода в Верхнем Дуброво (Свердловская область, Россия) (29 км)
Погода в Сысерти (Свердловская область, Россия) (38 км)
Погода в Ревде (Свердловская область, Россия) (40 км)
Погода в Мариинске (Свердловская область, Россия) (52 км)
Погода в Невьянске (Свердловская область, Россия) (78 км)
Погода в Верхнем Уфалее (Челябинская область, Россия) (86 км)
Погода в Каменск-Уральском (Свердловская область, Россия) (88 км)
Погода в Бисерти (Свердловская область, Россия) (95 км)
Погода в Артемовском (Свердловская область, Россия) (98 км)

Пояснения к столбцам:

Ветер - указаны скорость ветра в м/с - средняя за 10 мин, порывы в срок и между сроками (в фигурных скобках) и направление, откуда дует ветер: С - северный, СВ - северо-восточный, В - восточный, ЮВ - юго-восточный, Ю - южный, ЮЗ - юго-западный, З - западный, СЗ - северо-западный.
Видимость - горизонтальная дальность видимости в метрах или километрах. При видимости от 1 до 10 км при отсутствии осадков обычно наблюдается дымка, при ухудшении видимости до 1 км и менее - туман. В сухую погоду видимость может ухудшаться дымом, пылью или мглою.
Явления - указаны атмосферные явления, наблюдавшиеся в срок или в последний час перед сроком; фигурными скобками обозначены явления, наблюдавшиеся между сроками (за 1-3 часа до срока); квадратными скобками обозначены град или гололедные отложения с указанием их диаметра в мм.
Облачность - указаны через наклонную черту общая и нижняя облачность в баллах и высота нижней границы облаков в метрах; квадратными скобками обозначены формы облаков: Ci - перистые, Cs - перисто-слоистые, Cc - перисто-кучевые, Ac - высококучевые, As - высокослоистые, Sc - слоисто-кучевые, Ns - слоисто-дождевые, Cu - кучевые, Cb - кучево-дождевые. Подробнее классификацию облаков см. в Атласе облаков (PDF).
T - Температура воздуха - температура, измеренная на высоте 2 м над землей.
Td - Температура точки росы - температура, при понижении до которой содержащийся в воздухе водяной пар достигнет насыщения.
f - Относительная влажность воздуха - влажноcть воздуха, измеренная на высоте 2 м над землей.
Te - Эффективная температура - температура, которую ощущает одетый по сезону человек в тени. Характеристика душности погоды. При расчете учитывается влияние влажности воздуха и скорости ветра на теплоощущения человека.
Tes - Эффективная температура на солнце - температура, которую ощущает человек, с поправкой на солнечный нагрев. Характеристика знойности погоды. Зависит от высоты солнца над горизонтом, облачности и скорости ветра. Ночью, в пасмурную погоду, а также при ветре 12 м/с и более поправка равна нулю.
P - Атмосферное давление - приведенное к уровню моря атмосферное давление.
Po - Атмосферное давление - измеренное на уровне метеостанции атмосферное давление.
Tmin - Минимальная температура - минимум температуры воздуха на высоте 2 м над землей.
Tmax - Максимальная температура - максимум температуры воздуха на высоте 2 м над землей.
R - Количество осадков - Количество выпавших осадков за период времени, мм. При наведении курсора мыши на число - период времени, за который выпало указанное количество осадков.
R24 - Количество осадков - Количество выпавших осадков за 24 часа, мм.
S - Снежный покров - Высота снежного покрова, см. При наведении курсора мыши на число - состояние снежного покрова и степень покрытия местности в баллах.